Flag for Venezuela Weather past 2 weeks in Caracas, Venezuela

Now
81 °F

Passing clouds.


Feels Like: 86 °F
Forecast: 64 / 78 °F
Wind: 3 mph from Northeast

Location: Caracas / Maiquetia Aerop. Intl. Simon Bolivar

Current Time: Aug 20, 2014 at 7:57:52 PM

Latest Report: Aug 20, 2014 at 7:30 PM


Visibility: N/A

Pressure: 29.89 "Hg

Humidity: 84%

Dew point: 75 °F

Location of CaracasLocation

Historic Weather in Caracas — Graph

°F

Caracas temperature yesterday

Maximum temperature yesterday: 88 °F (at 10:30 AM)
Minimum temperature yesterday: 77 °F (at 2:30 AM)
Average temperature yesterday: 82 °F

Past Weeks' High & Low Weather Summary

 TemperatureHumidityPressure
High95 °F (Aug 6, 1:30 PM)100% (Aug 16, 5:30 AM)29.98 "Hg (Aug 16, 5:30 AM)
Low72 °F (Aug 16, 5:30 AM)47% (Aug 6, 1:30 PM)29.80 "Hg (Aug 6, 4:30 PM)
Average82 °F77%29.88 "Hg
* Reported Aug 5 6:30 PM — Aug 20 6:30 PM, Caracas, Weather by CustomWeather, © 2014

Note: Actual official high and low records may vary slightly from our data, if they occured in-between our weather recording intervals... More about our weather records

Advertising

Caracas weather history for previous 24 hours

 ConditionsComfort  
Time TempWeatherWind HumidityBarometerVisibility
6:30 PM
Aug 20
84 °FPassing clouds.3 mph74%29.83 "HgN/A
5:30 PM84 °FPartly sunny.5 mph74%29.86 "HgN/A
4:30 PM84 °FPartly sunny.5 mph79%29.86 "HgN/A
3:30 PM86 °FPartly sunny.5 mph75%29.98 "HgN/A
2:30 PM86 °FPartly sunny.5 mph70%29.86 "HgN/A
1:30 PM86 °FPartly sunny.5 mph75%29.86 "HgN/A
12:30 PM88 °FPartly sunny.7 mph70%29.89 "HgN/A
11:30 AM86 °FPartly sunny.5 mph70%29.89 "HgN/A
10:30 AM86 °FPartly sunny.3 mph70%29.89 "HgN/A
9:30 AM82 °FPartly sunny.2 mph70%29.89 "HgN/A
8:30 AM84 °FPartly sunny.1 mph62%29.89 "HgN/A
7:30 AM77 °FScattered clouds.No wind89%29.86 "HgN/A
6:30 AM77 °FScattered clouds.No wind83%29.89 "HgN/A
5:30 AM77 °FScattered clouds.No wind89%29.86 "HgN/A
4:30 AM77 °FPassing clouds.No wind89%29.86 "HgN/A
3:30 AM79 °FPassing clouds.No wind84%29.86 "HgN/A
2:30 AM79 °FPassing clouds.No wind84%29.86 "HgN/A
1:30 AM79 °FPassing clouds.No wind89%29.89 "HgN/A
12:30 AM79 °FPassing clouds.No wind89%29.89 "HgN/A
11:30 PM
Aug 19
81 °FPassing clouds.No wind84%29.89 "HgN/A
10:30 PM81 °FPassing clouds.1 mph84%29.89 "HgN/A
9:30 PM81 °FPassing clouds.1 mph84%29.89 "HgN/A
8:30 PM81 °FPassing clouds.1 mph84%29.89 "HgN/A
7:30 PM81 °FPassing clouds.1 mph84%29.86 "HgN/A
Weather by CustomWeather, © 2014

See weather overviewHow to use our weather pages